Location: Winthrop
(48.4780°N, 120.1850°W)
Time: 16:21:22
(UTC-07:00)

Explorer 7 - Pass Details

Date: 04 February 2023
Orbit: 478 x 657 km, 50.3° (Epoch: 30 March)

Event Time Altitude Azimuth Distance (km) Brightness Sun altitude
Rises 11:15:22 0° 219° (SW) 2,630 10.8 24.1°
Reaches altitude 10° 11:17:39 10° 209° (SSW) 1,775 10.2 24.2°
Maximum altitude 11:21:17 33° 145° (SE) 935 9.7 24.3°
Drops below altitude 10° 11:25:10 10° 80° (E) 1,888 9.7 24.5°
Sets 11:27:40 0° 72° (ENE) 2,826 10.4 24.6°
